PRSC-S1
Last updated on Mon Jun 22 2026 00:02:52 GMT+0000 (Coordinated Universal Time)
1 65055U 25164A 26172.50691903 .00003282 00000+0 23010-3 0 9993
2 65055 41.1302 263.4835 0005914 13.0650 347.0316 15.06488461 49087
Next 0 passes for location: London (51.5072 / 0.1276)
No passes found over London.